Temperature
17 16 17 17 17 17 17 17 16 16 16 16 16 16 16 15 15 15 15 15 15 15 14 14 15 14 15 15 15 15 15 15 16 16 16 15 14 14 14 14 14 14 14
17 17 17 17 17 17 17 17 16 16 16 16 16 16 16 15 15 15 15 15 15 15 15 15 15 14 14 15 14 14 15 14 15 15 15 15 14 14 14 14 14 14 14
17 17 17 17 17 17 17 17 16 16 16 16 16 16 16 16 15 15 15 15 15 15 15 15 15 14 14 14 14 14 14 14 14 14 15 15 14 14 13 14 14 14 14
17 17 17 17 17 17 17 17 17 17 16 16 16 16 16 16 15 15 15 15 15 15 15 14 14 14 14 14 14 14 14 14 14 14 14 14 14 14 14 14 14 14 14
17 17 17 17 17 16 16 16 16 16 16 16 16 16 16 16 16 15 15 15 15 15 14 14 14 14 14 14 14 14 14 14 14 14 14 14 14 14 14 14 14 14 14
17 17 17 17 17 16 16 16 16 16 16 16 16 16 16 16 16 16 15 15 15 15 14 14 14 14 14 14 14 14 14 13 14 14 14 14 14 14 13 13 13 14 14
17 17 17 17 16 16 16 16 16 16 16 16 16 16 16 16 16 16 16 15 15 14 14 14 14 14 14 14 14 14 14 14 14 13 13 13 13 13 13 13 13 13 13
17 17 17 17 17 17 16 16 16 16 16 16 16 16 16 16 16 16 15 15 14 14 14 14 14 14 13 13 13 13 13 13 13 13 13 13 13 13 13 12 12 12 12
16 16 16 16 16 16 16 16 16 16 16 16 16 15 15 15 15 15 15 14 14 14 14 14 13 13 13 13 13 13 13 13 13 13 13 13 13 12 12 12 12 11 12
16 16 16 16 16 16 16 16 16 16 16 15 15 15 15 15 15 15 14 14 14 13 13 13 13 13 13 13 12 12 12 12 12 12 12 12 12 12 12 11 11 11 11
16 16 16 16 16 16 16 15 15 15 15 15 14 14 14 14 14 14 14 13 13 13 13 13 13 12 12 12 12 12 11 11 11 11 11 11 11 11 11 11 11 10 10
15 15 15 15 15 15 15 15 15 14 14 14 14 14 13 13 13 13 13 13 13 12 12 12 12 12 12 11 11 11 11 11 11 10 10 10 10 10 10 10 10 10 10
14 14 14 14 14 14 14 14 14 14 14 13 13 13 13 13 12 12 12 12 12 12 11 11 11 11 11 11 10 10 10 10 10 10 10 10 10 10 10 10 10 9 9
13 13 13 13 13 13 13 13 13 13 13 13 13 12 12 12 12 12 11 11 11 11 11 10 10 10 10 10 10 10 10 9 9 9 9 10 10 9 9 9 9 9 9
13 13 13 13 12 12 12 12 12 12 12 12 12 12 12 11 11 11 11 11 10 10 10 10 10 10 10 10 10 10 9 9 9 9 9 9 9 9 9 9 9 9 9
12 12 12 12 12 12 12 12 12 11 11 11 11 11 11 11 11 11 11 10 10 10 10 10 10 10 10 9 9 9 9 9 9 9 8 8 8 8 8 8 8 8 8
12 12 12 12 12 12 12 12 11 11 11 11 11 11 11 11 10 10 10 10 10 10 9 10 10 9 9 9 9 9 9 9 8 8 8 8 8 8 8 8 8 7 8
11 11 11 11 11 11 11 11 11 11 11 11 10 10 10 10 10 10 10 10 10 10 9 9 9 9 9 9 9 9 8 8 8 8 8 8 7 7 7 7 7 7 7
11 11 10 11 11 11 11 11 11 11 11 11 10 10 9 9 9 9 9 9 9 9 9 9 9 9 8 8 8 8 8 7 7 7 7 7 7 7 7 7 7 7 6
10 10 10 10 10 10 10 10 10 10 10 10 10 10 9 9 9 9 9 9 9 9 9 8 8 8 8 8 8 7 7 7 7 7 7 6 6 6 6 6 6 6 6
10 10 9 10 10 10 10 10 10 10 10 10 9 9 8 8 9 9 9 8 8 8 8 7 7 7 7 7 7 7 7 7 6 6 6 6 6 6 5 5 5 5 6
9 9 9 9 9 9 9 9 9 9 9 9 9 9 8 8 8 8 8 7 7 7 7 6 6 7 6 6 6 6 6 6 6 6 5 5 5 5 5 5 5 5 5
9 9 9 9 8 8 8 8 8 8 8 8 8 8 7 7 7 7 6 6 6 6 6 6 6 6 6 5 5 5 5 5 5 5 4 4 4 4 4 5 5 5 5
8 8 8 8 8 8 8 7 7 7 7 7 7 6 6 6 6 6 5 5 5 5 5 5 5 5 5 5 4 4 4 4 4 4 4 4 4 4 4 4 4 5 5
7 7 7 7 7 7 6 6 6 6 6 6 6 5 5 5 5 5 4 4 4 4 4 4 4 4 4 4 4 4 4 4 4 4 4 4 4 4 4 4 4 4 4
6 6 6 6 6 5 5 5 5 5 4 4 4 4 4 4 4 4 3 3 3 3 3 3 3 3 3 3 3 3 3 4 4 4 4 4 4 4 4 4 4 4 4
Wind_Speed
12 12 12 12 12 12 11 12 11 11 11 11 11 11 11 11 11 10 10 9 9 9 8 8 8 7 6 6 6 6 6 6 7 6 5 4 5 7 6 8 10 10 11
12 12 12 12 12 12 11 11 11 11 11 11 11 11 12 12 11 11 11 10 10 10 10 9 9 8 8 8 7 7 7 6 7 8 6 6 7 8 7 8 10 10 11
12 12 12 12 12 11 11 11 11 11 11 11 11 12 12 11 11 12 11 11 11 10 10 10 10 9 9 8 8 8 7 7 7 8 8 6 7 7 7 9 10 9 12
12 12 12 12 12 11 11 11 10 10 10 11 11 11 11 11 11 11 11 11 10 10 10 10 10 11 11 10 9 10 9 8 8 9 9 8 7 7 7 8 9 8 9
11 11 11 11 11 11 10 10 10 10 10 10 10 10 10 10 10 11 11 11 11 11 11 11 12 11 10 9 9 10 10 9 9 9 9 9 8 7 8 8 9 9 9
11 11 10 10 10 10 10 10 9 9 9 9 10 10 10 9 8 9 10 11 11 11 11 11 11 12 12 12 12 11 10 11 11 10 10 10 9 9 8 8 9 10 10
10 10 10 10 10 10 10 10 10 10 10 10 9 9 10 8 8 10 11 10 10 10 10 10 10 10 11 12 13 14 14 14 13 13 13 12 11 9 8 10 10 11 11
10 9 9 9 9 9 9 9 9 9 9 9 9 10 9 8 10 10 11 11 10 10 10 10 11 11 10 10 11 12 12 13 13 13 12 12 10 8 7 9 11 12 13
8 7 7 7 8 8 8 8 8 7 8 8 8 9 8 6 8 9 9 8 8 10 10 10 10 11 8 7 10 11 11 10 10 11 10 10 9 9 9 8 10 11 12
7 6 5 5 6 6 5 5 5 6 6 6 5 5 5 5 5 8 9 6 7 8 7 7 7 7 5 6 9 10 11 9 8 7 8 10 11 12 13 11 11 11 11
6 6 6 5 5 4 4 3 3 4 3 3 2 1 1 1 2 5 7 6 6 6 5 5 4 6 6 6 7 8 8 6 6 8 8 9 9 9 10 10 10 11 12
7 7 6 5 5 5 5 4 3 3 3 3 2 2 1 1 1 3 5 5 5 5 5 4 2 3 6 7 7 6 5 5 7 8 8 9 9 9 8 9 10 12 13
9 8 7 7 5 4 4 4 3 3 2 2 2 1 1 1 2 4 4 4 4 3 2 1 1 3 5 6 8 8 7 7 7 8 9 9 9 8 8 8 10 12 14
10 9 8 7 7 6 4 3 3 2 2 1 1 1 1 1 0 1 1 2 4 3 2 2 4 5 5 5 5 6 6 7 7 8 8 9 8 8 9 9 10 10 11
10 9 8 8 7 7 7 6 5 5 4 2 1 1 1 1 3 4 2 1 1 0 2 3 4 4 4 5 5 6 6 7 8 9 9 9 9 9 9 9 9 11 12
8 8 7 6 6 5 6 6 9 7 7 7 7 5 4 5 4 3 3 3 2 1 3 5 5 5 5 6 6 6 7 8 8 8 9 9 10 10 10 10 10 11 12
9 8 7 6 6 5 4 4 3 4 5 5 4 4 3 2 1 1 1 2 4 5 6 6 6 6 6 7 7 8 8 8 7 8 9 10 10 10 10 11 11 11 12
9 8 7 6 5 5 4 3 3 2 1 1 3 5 4 3 3 4 4 5 5 6 6 7 7 7 7 8 8 8 8 8 8 9 9 10 10 10 11 11 11 13 13
8 7 6 5 4 4 3 3 3 3 3 3 2 2 4 5 8 8 7 6 7 7 7 7 7 8 8 8 9 9 9 9 10 10 10 11 11 11 11 12 12 14 13
7 7 5 4 4 4 4 3 3 3 4 4 4 5 4 5 5 4 4 6 7 8 8 8 8 9 9 9 9 9 10 10 10 10 11 11 11 11 12 14 13 13 12
5 4 2 3 5 4 4 4 4 4 5 5 5 4 5 7 7 7 7 6 7 8 8 9 9 9 9 9 9 10 11 10 10 11 10 10 11 11 11 12 13 13 13
4 4 4 5 4 4 5 5 5 5 6 6 6 4 1 6 7 8 8 8 8 7 8 8 9 9 9 10 10 10 11 11 11 11 11 11 11 11 12 12 12 12 13
4 5 5 5 5 4 5 5 6 6 7 7 7 7 7 7 8 8 8 8 8 8 8 8 9 10 9 9 10 10 11 11 11 11 11 11 11 12 12 13 15 15 14
5 6 6 5 5 6 6 6 6 6 7 7 7 7 7 7 8 8 9 9 9 9 9 9 10 12 13 11 11 11 10 10 12 11 13 13 13 13 13 13 14 16 15
6 6 6 6 6 6 6 6 7 7 7 7 8 8 8 8 9 8 9 9 10 10 12 12 10 11 14 15 14 13 11 12 12 13 13 12 14 14 14 15 14 14 14
6 6 6 6 6 6 6 7 7 8 8 8 8 8 9 9 9 9 9 9 10 11 11 11 13 15 17 15 15 14 13 13 13 13 13 11 13 13 13 12 14 13 13
Wind_Direction
189 192 192 193 195 194 196 196 195 194 192 195 196 197 201 204 203 206 218 207 215 216 215 214 220 236 234 231 230 238 243 251 260 262 244 234 233 260 251 253 257 255 250
187 189 191 193 194 194 196 196 193 193 196 199 198 201 205 207 206 208 216 213 217 221 220 220 221 218 223 242 240 240 244 251 257 265 260 245 232 243 252 259 262 258 267
185 187 188 192 193 195 195 193 193 194 198 199 200 205 208 210 210 213 216 217 221 225 225 223 224 223 223 229 235 241 241 238 243 256 257 254 250 244 249 252 257 260 266
182 184 188 193 194 194 195 195 194 195 198 201 204 209 211 213 215 216 216 220 225 228 229 228 229 227 226 229 231 237 244 247 242 250 257 253 249 245 249 259 261 250 258
182 184 186 190 191 192 192 193 194 197 200 202 207 209 212 214 215 214 217 220 223 227 227 229 231 232 234 235 240 234 233 239 245 246 253 256 252 251 255 260 267 271 263
182 184 183 183 184 186 188 189 191 197 202 201 206 208 210 215 192 199 221 227 226 229 231 231 232 226 228 229 245 255 255 246 249 254 257 258 260 260 261 266 271 273 276
177 180 178 179 181 185 187 189 191 194 197 201 206 209 212 211 179 194 210 230 233 233 234 236 241 234 221 232 229 231 242 246 247 254 261 264 267 268 271 269 268 274 278
173 176 177 179 180 182 186 190 193 194 196 200 204 209 213 206 180 193 202 221 236 237 237 239 243 248 239 235 240 238 239 239 236 238 250 259 267 276 271 270 277 274 270
165 169 172 175 178 182 186 191 191 193 197 204 206 211 214 206 180 192 202 222 232 239 240 240 242 243 228 219 241 248 248 247 239 233 242 256 271 273 269 268 268 271 274
154 152 152 159 167 174 181 184 183 191 199 203 205 210 215 223 185 188 206 230 238 242 240 241 236 236 225 212 239 248 251 252 256 248 242 248 253 250 237 239 254 264 271
134 130 130 136 140 144 152 163 173 182 181 185 177 176 193 232 164 174 202 230 243 243 247 245 235 192 218 227 241 253 259 267 264 261 258 256 253 250 244 238 242 254 264
117 113 111 112 115 119 123 124 137 152 152 148 154 174 188 201 209 165 180 219 256 252 258 265 266 179 215 229 236 245 251 257 259 257 257 258 259 259 259 259 257 258 260
104 101 99 98 94 96 110 118 122 128 139 154 176 194 195 189 166 160 171 193 220 242 266 308 295 210 223 233 228 227 231 244 251 256 260 263 265 267 269 266 262 257 257
97 96 95 93 91 81 68 74 81 84 103 139 158 187 258 250 50 122 192 201 201 221 251 223 211 220 233 251 243 230 238 250 256 261 268 272 275 273 269 271 272 272 273
92 91 90 87 85 81 72 53 51 53 44 31 41 41 351 6 41 25 346 310 300 278 265 255 252 247 245 247 251 252 252 250 252 259 268 272 273 274 276 278 278 278 276
91 86 86 87 86 87 91 83 59 60 71 62 43 30 53 63 70 53 34 17 3 302 268 262 263 262 264 265 264 262 259 261 263 268 271 274 277 279 280 280 278 276 276
78 76 76 75 78 78 78 79 86 93 100 98 93 78 65 67 68 18 322 291 266 251 258 268 271 273 275 275 274 274 274 272 274 274 275 276 277 278 277 277 277 276 276
74 71 65 66 61 58 53 46 41 32 43 86 140 149 162 189 222 241 250 262 254 238 266 279 283 283 282 283 283 284 283 282 275 273 276 279 280 279 278 278 278 278 281
64 62 54 51 49 45 35 26 23 15 357 346 346 149 181 217 220 227 232 270 288 288 283 282 283 284 284 284 284 284 282 280 280 282 281 281 280 279 278 280 281 282 280
66 56 36 32 32 30 24 11 3 353 340 336 338 344 340 306 293 276 259 281 289 295 299 297 295 294 294 293 292 289 286 284 283 281 282 284 285 285 284 283 283 284 283
51 57 35 18 28 19 7 358 351 341 337 333 333 7 351 313 309 313 309 304 303 306 307 306 304 301 298 294 291 292 291 289 288 288 288 289 289 288 286 285 284 283 283
22 22 18 16 11 4 353 339 335 334 332 329 327 333 264 302 317 321 322 323 323 318 313 309 303 304 307 306 304 301 297 294 294 295 293 291 288 287 286 285 284 285 285
7 7 6 5 358 350 331 339 339 333 332 332 331 331 331 331 329 330 329 325 323 319 318 314 307 306 310 309 304 298 296 299 303 304 301 295 292 290 288 286 286 286 285
8 5 3 359 354 351 350 346 343 341 339 338 335 332 330 328 325 327 326 325 323 319 318 316 311 309 309 307 303 301 306 314 312 305 299 293 290 288 287 285 285 286 286
9 7 3 1 0 356 354 350 349 346 342 339 337 335 333 330 328 329 329 328 326 323 322 318 314 313 312 310 308 309 325 326 313 304 297 288 284 283 283 284 284 286 285
10 6 4 2 1 357 352 349 348 345 342 340 339 336 332 329 331 332 331 330 327 324 322 321 321 321 318 315 318 325 323 313 304 295 290 285 281 279 281 281 283 283 284
Height
1497 1501 1504 1508 1512 1515 1518 1522 1525 1528 1531 1534 1537 1540 1542 1545 1547 1548 1551 1552 1553 1554 1555 1556 1557 1558 1559 1561 1561 1562 1562 1562 1562 1562 1562 1561 1560 1560 1560 1559 1559 1558 1558
1495 1499 1502 1506 1509 1513 1516 1519 1522 1525 1528 1531 1534 1537 1539 1542 1544 1545 1547 1549 1550 1551 1552 1553 1554 1555 1555 1557 1558 1558 1559 1559 1559 1559 1559 1558 1556 1556 1555 1554 1555 1555 1554
1494 1496 1500 1503 1507 1510 1513 1516 1519 1522 1525 1528 1530 1533 1536 1539 1540 1542 1543 1545 1547 1548 1549 1550 1550 1551 1552 1553 1553 1555 1555 1555 1555 1555 1555 1554 1553 1553 1551 1551 1550 1549 1549
1492 1494 1497 1500 1504 1507 1511 1514 1516 1519 1522 1524 1527 1530 1533 1535 1536 1538 1540 1541 1542 1544 1545 1545 1546 1547 1548 1549 1549 1549 1550 1551 1551 1550 1550 1550 1549 1548 1547 1547 1546 1545 1544
1490 1493 1495 1498 1502 1505 1508 1511 1514 1516 1519 1521 1524 1526 1529 1531 1532 1534 1536 1537 1538 1539 1540 1541 1541 1542 1543 1544 1545 1545 1546 1546 1546 1546 1546 1545 1545 1544 1544 1543 1542 1541 1539
1489 1492 1494 1497 1499 1502 1505 1508 1511 1513 1516 1518 1520 1522 1524 1526 1528 1529 1531 1532 1533 1534 1535 1536 1536 1537 1537 1538 1539 1540 1540 1540 1541 1541 1540 1540 1539 1539 1538 1537 1537 1536 1534
1487 1490 1493 1495 1498 1501 1504 1506 1508 1510 1512 1514 1516 1518 1520 1522 1523 1525 1526 1527 1528 1529 1530 1530 1532 1532 1532 1532 1532 1533 1533 1534 1534 1534 1534 1533 1533 1533 1532 1532 1531 1529 1528
1486 1489 1491 1494 1496 1498 1501 1503 1505 1507 1509 1511 1512 1514 1515 1517 1518 1520 1521 1522 1523 1523 1524 1524 1525 1526 1526 1526 1526 1526 1526 1527 1527 1527 1526 1526 1527 1526 1525 1525 1523 1522 1519
1484 1487 1489 1492 1494 1496 1498 1500 1502 1504 1506 1508 1509 1510 1511 1512 1513 1515 1516 1516 1517 1517 1518 1518 1518 1519 1519 1520 1520 1520 1520 1520 1520 1520 1519 1519 1519 1518 1518 1518 1517 1515 1513
1483 1485 1488 1490 1492 1494 1496 1498 1499 1501 1502 1504 1506 1506 1507 1508 1509 1510 1511 1511 1512 1512 1512 1512 1512 1512 1512 1513 1513 1513 1513 1513 1513 1513 1512 1511 1511 1510 1510 1509 1509 1508 1506
1482 1484 1486 1488 1490 1491 1493 1495 1496 1498 1499 1500 1502 1502 1503 1503 1504 1504 1505 1506 1506 1506 1507 1507 1507 1506 1506 1506 1506 1506 1506 1506 1506 1505 1505 1505 1504 1503 1503 1502 1501 1500 1499
1482 1484 1485 1487 1489 1490 1491 1492 1494 1495 1496 1497 1498 1499 1499 1500 1500 1500 1501 1501 1501 1501 1501 1502 1501 1501 1500 1500 1500 1500 1500 1500 1499 1499 1499 1498 1498 1497 1496 1495 1494 1492 1491
1482 1484 1485 1487 1488 1489 1490 1491 1492 1493 1494 1495 1496 1496 1497 1497 1497 1497 1497 1496 1496 1496 1496 1496 1496 1495 1495 1494 1494 1494 1493 1494 1494 1494 1493 1492 1491 1490 1488 1487 1485 1484 1482
1483 1484 1486 1487 1488 1489 1490 1492 1492 1493 1493 1494 1495 1495 1496 1496 1495 1494 1494 1493 1493 1493 1493 1492 1491 1491 1491 1490 1490 1489 1489 1489 1488 1488 1487 1487 1485 1484 1482 1481 1479 1478 1476
1485 1486 1488 1489 1490 1490 1491 1492 1492 1492 1493 1493 1494 1494 1495 1494 1493 1492 1492 1492 1491 1491 1490 1489 1489 1489 1488 1487 1486 1485 1485 1484 1483 1483 1482 1480 1479 1477 1476 1474 1472 1470 1468
1488 1489 1490 1491 1492 1492 1493 1493 1493 1494 1493 1493 1493 1493 1492 1492 1491 1490 1490 1489 1489 1488 1488 1487 1487 1486 1485 1483 1482 1481 1480 1479 1478 1477 1475 1474 1472 1471 1469 1467 1466 1464 1461
1490 1491 1492 1493 1494 1494 1495 1495 1495 1495 1494 1493 1493 1492 1491 1490 1490 1489 1488 1487 1487 1486 1486 1485 1484 1483 1481 1480 1479 1478 1476 1475 1473 1471 1469 1468 1466 1464 1462 1460 1458 1456 1454
1493 1493 1494 1495 1495 1496 1496 1496 1496 1495 1495 1494 1492 1491 1490 1489 1489 1488 1486 1486 1485 1484 1483 1482 1481 1479 1478 1476 1475 1473 1471 1469 1467 1466 1464 1462 1460 1458 1456 1454 1451 1449 1447
1495 1496 1496 1496 1496 1496 1496 1496 1495 1495 1494 1494 1493 1491 1489 1488 1487 1486 1484 1484 1483 1482 1480 1478 1477 1475 1473 1471 1469 1467 1465 1464 1462 1460 1458 1456 1454 1452 1449 1447 1445 1442 1440
1497 1497 1497 1497 1497 1497 1496 1495 1495 1494 1494 1493 1491 1490 1488 1487 1486 1484 1483 1481 1480 1478 1476 1475 1473 1471 1469 1466 1464 1462 1460 1458 1456 1453 1451 1449 1447 1445 1442 1440 1438 1435 1432
1499 1499 1498 1498 1498 1497 1496 1495 1495 1494 1493 1492 1490 1488 1486 1485 1484 1482 1480 1478 1476 1474 1472 1470 1468 1466 1464 1461 1459 1456 1454 1452 1450 1447 1445 1443 1440 1438 1435 1433 1431 1428 1425
1500 1500 1499 1498 1497 1496 1495 1495 1494 1493 1491 1490 1488 1487 1484 1483 1481 1479 1477 1475 1473 1471 1468 1466 1463 1461 1458 1456 1453 1451 1448 1446 1443 1441 1438 1436 1433 1431 1428 1426 1424 1421 1418
1500 1499 1498 1497 1496 1495 1494 1493 1492 1491 1489 1487 1486 1484 1482 1480 1478 1476 1474 1471 1469 1467 1464 1461 1458 1456 1453 1450 1447 1445 1442 1440 1437 1434 1432 1429 1426 1424 1422 1419 1417 1414 1412
1500 1499 1497 1496 1495 1494 1493 1491 1490 1488 1487 1485 1483 1482 1480 1478 1475 1473 1470 1468 1465 1462 1459 1456 1453 1450 1447 1444 1441 1439 1436 1433 1430 1427 1425 1422 1419 1417 1414 1412 1410 1407 1405
1499 1498 1496 1495 1494 1493 1491 1490 1488 1487 1485 1483 1481 1479 1477 1475 1472 1469 1467 1464 1461 1458 1454 1451 1448 1445 1442 1439 1435 1432 1429 1425 1423 1420 1417 1414 1412 1409 1407 1405 1402 1400 1397
1498 1497 1496 1494 1493 1491 1490 1488 1487 1485 1483 1481 1479 1476 1474 1472 1469 1466 1463 1460 1456 1453 1450 1447 1443 1440 1436 1433 1429 1425 1422 1418 1415 1412 1409 1407 1404 1402 1400 1398 1396 1393 1391